Tracking 31027 objects as of 19-Jul-2025
HD Live streaming from Space Station
objects crossing your sky now

METEOSAT 4 AKM

Track METEOSAT 4 AKM now!


NORAD ID: 20800
Int'l Code: 1989-020E
Perigee: 35,193.8 km
Apogee: 36,283.5 km
Inclination: 11.4 °
Period: 1,433.3 minutes
Semi major axis: 42109 km
RCS: 1 m2 (large)
Launch date: March 6, 1989
Source: European Space Agency (ESA)
Launch site: FRENCH GUIANA (FRGUI)

Note: This is a ROCKET BODY
Your satellite tracking list
EUTE 33A (EB 3)
Track 1 satellite(s)




NASA's NSSDC Master Catalog

Two Line Element Set (TLE):
1 20800U 89020E   25199.39836294 -.00000147  00000-0  00000-0 0  9992
2 20800  11.3879 333.3298 0129392 246.4014 113.9142  1.00468679112858
Source of the keplerian elements: AFSPC